Wind_Speed
63 64 64 63 62 61 60 60 60 58 58 59 60 59 57 56 54 51 49 48 45 43 41 40 39 38 37 36 35 34 33 33 32 31 31 30 30 30 29 29 29 29 29 29
63 63 62 63 63 62 62 62 61 60 59 60 61 62 60 59 57 55 52 50 48 46 45 43 42 41 41 39 39 38 37 36 35 34 34 34 33 32 32 32 31 32 32 32
62 61 61 62 63 63 63 63 61 61 61 62 63 64 62 61 60 58 56 53 51 48 47 46 45 44 44 43 41 41 40 40 39 38 38 37 36 36 35 35 35 35 35 35
61 62 62 63 63 64 64 62 63 62 62 63 64 67 63 61 60 59 57 56 54 52 51 49 49 47 46 45 44 44 44 43 42 42 41 41 40 39 39 39 39 38 38 38
57 59 61 63 62 62 63 62 62 63 63 64 64 67 66 63 61 58 57 56 56 55 54 52 51 50 49 48 48 47 47 47 46 46 45 44 43 42 42 42 41 41 41 42
51 54 58 59 59 60 61 61 61 62 63 67 66 67 68 64 61 59 57 56 56 56 56 55 53 53 52 51 51 50 50 50 49 49 48 48 47 46 45 45 45 45 45 44
48 51 53 55 56 58 59 59 59 60 64 69 66 67 69 63 60 59 59 58 57 57 57 56 55 55 54 54 53 52 52 52 51 51 51 50 49 49 49 48 48 48 48 48
43 46 50 52 53 54 56 58 59 60 62 64 65 67 67 65 62 60 59 59 59 58 58 57 57 57 56 56 55 55 54 54 53 53 53 53 52 52 52 52 52 52 51 51
39 42 44 46 49 51 52 55 55 56 60 61 65 66 66 64 62 60 60 60 59 58 58 58 58 58 58 58 57 57 56 56 56 56 56 55 55 55 55 54 54 54 54 54
37 39 40 42 45 46 49 49 50 52 55 58 62 63 63 62 61 60 60 60 59 59 59 58 58 58 58 58 58 58 58 58 58 58 58 58 58 57 57 56 56 56 56 56
36 38 39 41 43 43 44 47 48 49 51 53 57 59 59 59 59 58 58 58 57 57 57 58 58 57 57 57 58 58 59 59 59 59 59 59 59 58 58 58 57 57 57 57
34 37 39 40 41 42 43 45 46 48 50 51 53 56 54 55 56 56 56 56 57 57 57 57 58 58 58 58 57 58 58 58 59 60 60 60 60 60 59 59 59 59 59 59
32 34 37 38 40 42 44 44 46 48 50 51 51 52 51 51 52 53 53 53 53 54 55 56 56 57 57 57 58 58 59 59 59 60 60 61 61 61 61 61 61 61 61 61
31 34 36 37 38 40 42 43 44 47 50 52 51 49 48 49 49 50 51 51 52 52 52 53 54 55 56 56 57 58 58 59 59 60 60 61 62 62 63 63 63 63 63 63
32 34 36 37 37 40 41 42 43 46 48 51 50 49 47 47 49 49 50 51 51 52 52 52 53 54 55 55 56 57 57 58 59 59 60 61 61 62 63 63 64 64 63 63
32 34 35 37 37 38 41 42 43 44 45 47 49 50 47 48 50 50 50 50 52 52 52 52 53 53 54 55 56 56 57 57 58 58 59 60 61 62 62 63 63 63 63 63
30 33 35 38 38 39 39 39 41 43 44 44 45 45 48 50 50 51 52 53 53 54 53 52 53 53 54 54 55 55 56 57 57 58 58 59 60 61 61 61 61 61 62 62
30 31 33 35 37 41 38 37 39 42 43 43 44 43 45 48 50 50 51 53 54 54 54 54 53 53 53 54 55 55 55 55 56 57 57 58 59 59 60 60 60 61 61 61
29 31 33 34 37 39 36 35 36 41 42 41 42 43 43 45 49 51 51 51 52 53 54 55 55 55 55 55 55 55 55 55 55 55 54 55 56 57 58 59 59 60 60 61
29 31 33 34 36 37 32 32 33 37 39 38 40 41 41 43 47 48 48 50 50 51 52 53 54 55 55 54 54 54 54 53 53 53 53 54 55 56 57 57 58 58 58 58
31 33 34 36 37 36 30 30 32 35 35 34 36 38 40 43 44 45 47 48 49 49 50 52 53 54 55 55 54 53 52 52 52 52 52 53 54 54 54 54 54 55 56 56
31 33 34 36 38 35 31 32 34 34 33 34 35 37 39 41 42 43 44 45 46 47 49 49 50 52 52 52 52 52 52 51 51 50 51 52 52 52 52 52 52 53 54 54
29 31 32 34 34 33 33 34 33 34 35 35 36 37 39 40 40 41 43 43 44 45 46 47 48 49 49 50 51 51 50 50 50 50 50 50 50 51 51 51 51 52 53 52
27 28 31 33 32 32 32 33 34 34 34 34 36 38 39 40 40 40 41 43 44 44 45 45 46 46 47 47 48 48 48 48 48 48 48 48 48 49 50 51 51 51 51 51
26 28 30 31 30 32 32 34 35 35 36 36 37 38 39 40 40 40 41 42 43 44 44 44 44 43 44 46 47 47 48 48 48 47 48 48 47 47 49 50 50 50 51 51
26 29 31 31 30 32 31 32 36 36 36 38 39 40 40 40 40 40 41 41 42 42 43 43 43 43 44 45 46 47 47 47 46 47 47 48 47 47 48 49 48 49 49 50
Wind_Direction
236 236 236 237 238 239 240 241 241 240 240 241 242 242 241 241 241 242 243 244 245 245 245 245 247 249 250 250 250 251 252 253 254 255 256 257 258 260 262 265 267 269 270 272
237 236 236 236 236 237 239 239 240 240 241 242 241 241 240 241 242 243 243 244 244 245 245 246 247 248 250 251 252 252 253 254 255 256 256 258 259 262 264 266 268 269 270 273
237 237 236 236 236 237 238 240 241 242 243 243 242 241 240 240 241 242 242 243 244 245 245 246 248 249 250 251 251 253 254 255 255 256 257 258 260 262 264 266 267 268 270 272
237 235 235 234 235 236 238 239 241 242 242 243 243 243 239 240 241 242 242 243 245 246 247 248 249 249 250 251 252 253 254 255 255 256 258 259 261 262 263 265 266 268 270 272
236 235 235 235 235 237 238 239 241 242 243 243 242 245 241 240 241 242 243 244 245 246 247 248 249 251 251 252 252 253 253 255 256 257 259 260 261 262 264 265 267 268 270 272
234 234 234 234 235 236 237 238 240 241 243 243 242 245 245 242 242 243 245 245 246 247 247 248 249 250 251 252 253 253 254 255 256 258 259 260 262 263 263 265 266 268 269 271
234 234 233 234 234 234 235 237 239 240 241 244 244 245 246 245 244 244 244 245 246 247 247 248 249 250 251 252 254 254 254 255 256 258 259 260 261 262 263 265 266 267 268 270
237 235 234 235 236 236 236 237 239 241 244 246 245 245 245 246 246 246 245 246 246 247 247 248 249 250 251 252 253 255 255 256 256 257 258 259 260 261 263 264 266 267 268 269
238 237 235 236 237 236 235 236 238 242 245 246 246 246 245 246 247 248 248 247 247 248 248 249 249 250 251 252 253 254 255 255 256 257 258 259 260 262 263 265 266 267 268 269
237 238 235 235 236 236 236 237 237 239 242 245 247 247 247 246 248 249 249 249 249 249 249 249 249 250 251 252 253 253 254 255 256 257 258 260 261 262 263 264 265 267 268 269
236 237 237 237 236 237 236 235 237 240 243 246 248 248 247 248 249 251 251 251 251 250 250 249 249 250 251 251 252 253 254 255 256 257 258 259 261 262 263 264 265 267 268 269
235 236 237 238 238 238 237 237 237 239 241 244 248 247 247 249 249 250 250 251 251 251 251 251 252 252 252 252 253 253 254 255 256 257 257 259 260 261 262 263 264 265 266 267
234 238 239 238 238 237 237 237 238 240 241 242 245 247 246 248 249 250 250 251 252 252 252 252 252 252 252 253 253 253 254 255 255 256 257 258 259 260 261 262 263 264 265 266
238 241 241 241 242 240 240 239 240 241 241 243 244 246 244 246 248 249 250 250 251 251 252 253 253 253 253 253 254 254 255 255 255 256 257 258 259 260 261 262 263 264 265 266
243 245 244 242 242 242 243 242 242 243 244 246 245 245 243 244 246 247 248 249 250 250 251 252 253 253 254 254 255 255 256 256 256 257 257 258 259 260 261 262 263 263 264 265
245 247 246 244 244 246 245 243 244 246 247 249 250 248 245 246 246 246 247 248 249 250 251 252 253 253 254 254 255 256 256 257 257 258 258 259 259 260 260 261 262 263 264 265
246 249 250 248 246 249 250 246 247 249 249 251 252 251 248 247 248 247 247 247 249 250 250 252 252 253 254 255 255 255 256 258 259 259 260 260 260 261 261 262 263 263 264 265
250 250 250 251 250 251 252 252 252 251 251 253 254 252 251 250 250 250 250 250 250 250 251 251 252 252 253 254 255 257 258 259 259 260 260 261 261 262 262 263 264 264 265 266
253 252 252 254 256 256 252 253 254 254 252 253 254 253 251 250 250 250 251 252 253 252 253 254 254 255 256 257 258 258 259 260 261 260 260 260 260 262 263 263 264 265 266 267
253 253 253 255 258 257 256 256 256 255 253 252 253 252 251 250 251 251 252 254 255 255 255 255 256 257 258 259 259 260 259 259 260 259 260 260 261 262 263 263 264 265 266 267
253 253 253 255 258 259 257 258 257 256 257 254 252 252 252 253 255 254 254 255 255 256 256 257 258 258 258 259 259 260 259 260 259 259 261 262 262 263 263 264 265 266 267 268
256 254 254 256 258 260 260 259 258 259 258 255 254 253 255 256 257 257 257 257 258 259 259 259 260 260 260 260 260 260 260 260 260 261 261 261 262 264 265 265 266 267 267 268
257 256 256 258 260 260 259 259 259 257 256 254 254 255 256 257 259 259 259 260 261 263 263 262 262 261 260 260 259 260 260 260 261 261 262 262 263 264 265 266 266 267 268 268
263 262 263 262 261 260 258 258 258 256 255 255 255 257 258 259 259 259 260 261 262 264 264 263 262 262 260 258 258 259 261 261 261 261 262 263 264 265 265 266 268 269 269 270
268 268 267 266 264 262 260 259 260 260 258 258 258 259 261 261 261 261 262 263 263 264 263 263 261 260 259 258 259 259 261 262 262 262 263 264 264 265 266 266 267 268 269 270
271 271 270 269 266 266 263 261 261 262 262 263 263 262 262 263 263 263 264 264 265 264 263 262 261 261 261 260 260 261 262 262 262 263 264 264 265 266 267 267 267 268 269 271
Height
5674 5682 5691 5701 5707 5713 5717 5723 5729 5737 5741 5744 5748 5755 5761 5766 5770 5776 5780 5784 5788 5792 5796 5798 5800 5802 5805 5807 5809 5811 5813 5814 5816 5817 5818 5820 5821 5821 5822 5822 5822 5822 5822 5821
5661 5670 5682 5686 5692 5698 5703 5710 5717 5723 5727 5730 5735 5741 5748 5754 5760 5766 5770 5775 5779 5783 5786 5789 5792 5794 5796 5799 5801 5803 5805 5806 5808 5810 5811 5812 5813 5814 5815 5815 5815 5815 5815 5814
5649 5662 5667 5671 5678 5685 5691 5699 5706 5710 5714 5716 5721 5726 5735 5742 5748 5754 5760 5764 5769 5773 5777 5780 5782 5785 5787 5790 5793 5795 5796 5798 5800 5801 5802 5804 5805 5806 5807 5807 5807 5807 5807 5806
5636 5646 5651 5657 5665 5672 5679 5688 5692 5695 5698 5702 5707 5711 5724 5730 5736 5743 5750 5754 5759 5763 5766 5769 5772 5775 5778 5781 5783 5785 5787 5788 5790 5791 5793 5794 5796 5797 5798 5798 5798 5798 5797 5797
5625 5633 5638 5645 5655 5660 5668 5674 5677 5681 5683 5687 5693 5696 5708 5718 5725 5733 5739 5743 5747 5751 5755 5758 5761 5764 5767 5770 5772 5774 5776 5778 5780 5781 5783 5784 5786 5787 5788 5788 5788 5788 5788 5787
5614 5620 5626 5634 5642 5647 5654 5659 5662 5665 5667 5670 5682 5683 5692 5706 5716 5723 5727 5731 5735 5739 5742 5746 5749 5752 5755 5757 5760 5763 5765 5767 5769 5770 5772 5773 5775 5776 5777 5777 5778 5777 5777 5777
5603 5608 5615 5622 5628 5634 5639 5645 5648 5649 5650 5657 5670 5669 5680 5695 5703 5709 5714 5718 5721 5725 5729 5733 5736 5739 5742 5745 5748 5750 5753 5755 5757 5758 5760 5762 5763 5764 5765 5765 5766 5766 5766 5766
5593 5599 5605 5611 5617 5622 5627 5632 5636 5639 5642 5649 5653 5655 5671 5681 5688 5693 5699 5703 5707 5711 5715 5719 5722 5726 5729 5732 5735 5737 5740 5742 5744 5746 5747 5749 5750 5751 5752 5753 5753 5754 5754 5754
5583 5589 5595 5600 5606 5610 5614 5618 5625 5627 5629 5633 5637 5645 5658 5667 5673 5679 5684 5688 5692 5697 5701 5705 5708 5712 5715 5718 5721 5724 5726 5729 5731 5732 5734 5736 5737 5738 5739 5740 5740 5741 5741 5741
5574 5579 5585 5590 5593 5598 5604 5609 5612 5614 5617 5620 5625 5633 5646 5656 5659 5664 5668 5672 5676 5681 5685 5690 5693 5697 5700 5704 5707 5709 5711 5714 5716 5718 5720 5721 5723 5724 5725 5726 5726 5727 5727 5727
5566 5571 5576 5579 5584 5589 5594 5597 5600 5604 5607 5610 5614 5624 5635 5641 5644 5648 5652 5656 5661 5666 5670 5674 5678 5681 5685 5688 5691 5694 5697 5699 5701 5703 5705 5707 5708 5709 5710 5711 5712 5712 5712 5712
5558 5561 5566 5571 5575 5579 5582 5586 5590 5594 5597 5599 5603 5613 5622 5626 5629 5633 5637 5641 5645 5650 5654 5658 5662 5666 5669 5673 5676 5679 5681 5684 5686 5688 5690 5691 5693 5694 5695 5696 5696 5697 5697 5697
5551 5554 5557 5561 5566 5568 5571 5576 5580 5582 5585 5588 5591 5603 5610 5613 5615 5618 5622 5626 5629 5633 5638 5642 5646 5649 5653 5656 5660 5663 5665 5668 5670 5672 5674 5675 5677 5678 5679 5680 5681 5681 5681 5681
5543 5546 5550 5553 5556 5559 5562 5566 5569 5571 5573 5577 5583 5591 5598 5600 5602 5605 5608 5611 5614 5618 5622 5626 5630 5633 5637 5640 5643 5646 5649 5651 5654 5655 5657 5659 5660 5661 5662 5663 5664 5664 5665 5665
5534 5537 5540 5543 5546 5549 5552 5556 5559 5561 5564 5567 5574 5579 5587 5589 5590 5592 5595 5598 5600 5604 5607 5611 5614 5618 5621 5624 5627 5630 5633 5635 5637 5639 5641 5642 5643 5644 5645 5646 5647 5647 5648 5648
5527 5530 5532 5534 5537 5538 5541 5546 5549 5551 5554 5557 5561 5567 5576 5576 5576 5578 5582 5584 5587 5590 5594 5597 5600 5603 5606 5609 5611 5614 5616 5618 5620 5622 5624 5625 5626 5628 5628 5629 5630 5631 5631 5631
5520 5522 5523 5526 5528 5528 5531 5538 5540 5541 5544 5547 5550 5558 5562 5563 5564 5566 5568 5571 5573 5577 5580 5583 5586 5588 5591 5594 5596 5598 5600 5602 5604 5606 5607 5609 5610 5611 5612 5612 5613 5614 5614 5615
5513 5514 5514 5516 5518 5518 5526 5529 5529 5530 5534 5537 5540 5545 5548 5550 5552 5553 5555 5557 5560 5562 5566 5568 5571 5574 5576 5578 5581 5583 5584 5586 5588 5590 5591 5592 5593 5594 5595 5596 5597 5597 5598 5598
5505 5506 5506 5507 5506 5508 5516 5520 5520 5519 5522 5527 5528 5532 5534 5536 5536 5539 5542 5543 5546 5548 5551 5553 5556 5558 5561 5563 5565 5567 5569 5571 5572 5574 5575 5576 5577 5578 5579 5580 5581 5581 5581 5581
5497 5497 5498 5498 5497 5499 5508 5511 5509 5508 5510 5517 5517 5519 5521 5522 5522 5528 5530 5530 5532 5534 5537 5539 5542 5544 5546 5548 5550 5552 5554 5555 5557 5558 5559 5560 5561 5563 5563 5564 5565 5565 5565 5565
5489 5488 5489 5489 5488 5490 5499 5500 5498 5499 5503 5506 5505 5506 5508 5509 5511 5515 5516 5517 5518 5521 5523 5525 5527 5529 5531 5533 5535 5537 5538 5540 5541 5542 5544 5545 5546 5547 5548 5548 5549 5549 5549 5549
5479 5479 5480 5480 5480 5485 5490 5489 5489 5490 5492 5493 5494 5495 5496 5497 5498 5500 5502 5504 5506 5507 5509 5511 5512 5514 5516 5518 5520 5522 5523 5524 5525 5527 5528 5529 5530 5531 5532 5532 5533 5533 5533 5533
5470 5471 5471 5472 5474 5476 5477 5477 5479 5479 5481 5481 5482 5483 5484 5485 5487 5489 5490 5491 5492 5494 5495 5497 5498 5500 5501 5503 5505 5507 5508 5509 5511 5512 5513 5514 5515 5516 5517 5517 5518 5518 5518 5518
5463 5462 5461 5461 5464 5466 5466 5467 5468 5468 5469 5470 5470 5472 5473 5474 5475 5477 5478 5479 5480 5480 5481 5482 5484 5485 5487 5489 5490 5492 5494 5495 5496 5497 5499 5499 5501 5501 5502 5503 5503 5503 5503 5503
5455 5454 5452 5452 5455 5456 5456 5457 5457 5457 5458 5458 5459 5460 5461 5462 5463 5465 5466 5467 5467 5468 5468 5469 5470 5472 5473 5475 5476 5478 5480 5481 5482 5483 5485 5485 5486 5487 5488 5488 5488 5488 5488 5487
5447 5445 5444 5444 5446 5445 5446 5447 5447 5447 5447 5448 5448 5449 5450 5451 5452 5453 5453 5454 5454 5455 5455 5456 5457 5458 5460 5461 5463 5464 5466 5467 5468 5469 5471 5471 5472 5473 5473 5474 5474 5473 5473 5473